,,PA_Meas_PMT16A,,PR_Meas_QMR101_102,,RH_Meas_QMH101,,SR_Meas_QMS101,,TA_Meas_QMH101,,GenWind,,GenWind,
time,status,PA,status,PR,status,RH,status,SR,status,TA,status,DirAvg,status,SpdAvg,
2012-04-27, 00:00:04,VALID,919.025,VALID,0,VALID,95.9178,VALID,0,VALID,19.2918,VALID,18,VALID,0.342187,
2012-04-27, 00:01:04,VALID,919.021,VALID,0,VALID,95.8645,VALID,0,VALID,19.2918,VALID,18,VALID,0.009375,
2012-04-27, 00:02:04,VALID,919.03,VALID,0,VALID,95.773,VALID,0,VALID,19.2723,VALID,18,VALID,0.260938,
2012-04-27, 00:03:04,VALID,919.049,VALID,0,VALID,95.7044,VALID,0,VALID,19.2918,VALID,18,VALID,0.05,
2012-04-27, 00:04:04,VALID,919.001,VALID,0,VALID,95.651,VALID,0,VALID,19.3128,VALID,18,VALID,0.272656,
2012-04-27, 00:05:04,VALID,918.997,VALID,0,VALID,95.59,VALID,0,VALID,19.2933,VALID,18,VALID,0.371094,
2012-04-27, 00:06:04,VALID,918.972,VALID,0,VALID,95.4909,VALID,0,VALID,19.3128,VALID,18,VALID,0.566016,
2012-04-27, 00:07:04,VALID,918.964,VALID,0,VALID,95.4375,VALID,0,VALID,19.3323,VALID,18,VALID,0.387891,
2012-04-27, 00:08:04,VALID,918.9,VALID,0,VALID,95.4071,VALID,0,VALID,19.3323,VALID,18,VALID,0.464453,
2012-04-27, 00:09:04,VALID,918.916,VALID,0,VALID,95.3842,VALID,0,VALID,19.3308,VALID,18,VALID,0.166016,
2012-04-27, 00:10:04,VALID,918.893,VALID,0,VALID,95.3537,VALID,0,VALID,19.3503,VALID,18,VALID,0.0121094,
2012-04-27, 00:11:04,VALID,918.847,VALID,0,VALID,95.3613,VALID,0,VALID,19.3308,VALID,18,VALID,0.119531,
2012-04-27, 00:12:04,VALID,918.839,VALID,0,VALID,95.3689,VALID,0,VALID,19.3518,VALID,18,VALID,0.3125,
2012-04-27, 00:13:04,VALID,918.819,VALID,0,VALID,95.3994,VALID,0,VALID,19.2918,VALID,18,VALID,0.167578,
2012-04-27, 00:14:04,VALID,918.802,VALID,0,VALID,95.4452,VALID,0,VALID,19.2528,VALID,18,VALID,0.160156,
2012-04-27, 00:15:04,VALID,918.776,VALID,0,VALID,95.5443,VALID,0,VALID,19.2348,VALID,18,VALID,0.2625,
2012-04-27, 00:16:04,VALID,918.744,VALID,0,VALID,95.7425,VALID,0,VALID,19.2348,VALID,18,VALID,0,
2012-04-27, 00:17:04,VALID,918.761,VALID,0,VALID,95.8797,VALID,0,VALID,19.2334,VALID,18,VALID,0,
2012-04-27, 00:18:04,VALID,918.735,VALID,0,VALID,96.0017,VALID,0,VALID,19.2543,VALID,18,VALID,0.0730469,
2012-04-27, 00:19:04,VALID,918.679,VALID,0,VALID,96.0093,VALID,0,VALID,19.2348,VALID,18,VALID,0.175781,
2012-04-27, 00:20:04,VALID,918.663,VALID,0,VALID,95.9026,VALID,0,VALID,19.1944,VALID,18,VALID,0.421094,
2012-04-27, 00:21:04,VALID,918.631,VALID,0,VALID,95.8873,VALID,0,VALID,19.1763,VALID,18,VALID,0.503906,
2012-04-27, 00:22:04,VALID,918.619,VALID,0,VALID,95.8568,VALID,0,VALID,19.1359,VALID,18,VALID,0.795703,
2012-04-27, 00:23:04,VALID,918.604,VALID,0,VALID,95.8263,VALID,0,VALID,19.1554,VALID,18,VALID,0.575781,
2012-04-27, 00:24:04,VALID,918.592,VALID,0,VALID,95.834,VALID,0,VALID,19.1554,VALID,18,VALID,0.573047,
2012-04-27, 00:25:04,VALID,918.564,VALID,0,VALID,95.8187,VALID,0,VALID,19.1749,VALID,19,VALID,0.808594,
2012-04-27, 00:26:04,VALID,918.569,VALID,0,VALID,95.6739,VALID,0,VALID,19.1554,VALID,18,VALID,0.801953,
2012-04-27, 00:27:04,VALID,918.557,VALID,0,VALID,95.5976,VALID,0,VALID,19.1749,VALID,18,VALID,0.605859,
2012-04-27, 00:28:04,VALID,918.513,VALID,0,VALID,95.5748,VALID,0,VALID,19.1944,VALID,18,VALID,0.779297,
2012-04-27, 00:29:04,VALID,918.513,VALID,0,VALID,95.59,VALID,0,VALID,19.1944,VALID,18,VALID,0.798828,
2012-04-27, 00:30:04,VALID,918.484,VALID,0,VALID,95.5519,VALID,0,VALID,19.2139,VALID,18,VALID,0.772656,
2012-04-27, 00:31:04,VALID,918.485,VALID,0,VALID,95.5367,VALID,0,VALID,19.1749,VALID,18,VALID,0.661719,
2012-04-27, 00:32:04,VALID,918.467,VALID,0,VALID,95.5367,VALID,0,VALID,19.1763,VALID,18,VALID,0.628906,
2012-04-27, 00:33:04,VALID,918.435,VALID,0,VALID,95.5671,VALID,0,VALID,19.1568,VALID,18,VALID,0.474219,
2012-04-27, 00:34:04,VALID,918.414,VALID,0,VALID,95.5824,VALID,0,VALID,19.1554,VALID,18,VALID,0.457031,
2012-04-27, 00:35:04,VALID,918.44,VALID,0,VALID,95.5062,VALID,0,VALID,19.1944,VALID,18,VALID,0.540625,
2012-04-27, 00:36:04,VALID,918.408,VALID,0,VALID,95.4299,VALID,0,VALID,19.2334,VALID,18,VALID,0.840625,
2012-04-27, 00:37:04,VALID,918.355,VALID,0,VALID,95.5214,VALID,0,VALID,19.2528,VALID,159,VALID,1.28125,
2012-04-27, 00:38:04,VALID,918.377,VALID,0,VALID,95.5671,VALID,0,VALID,19.2334,VALID,155,VALID,0.841797,
2012-04-27, 00:39:04,VALID,918.358,VALID,0,VALID,95.7196,VALID,0,VALID,19.1944,VALID,156,VALID,0.748828,
2012-04-27, 00:40:04,VALID,918.365,VALID,0,VALID,95.7958,VALID,0,VALID,19.1958,VALID,156,VALID,0.778906,
2012-04-27, 00:41:04,VALID,918.337,VALID,0,VALID,95.8797,VALID,0,VALID,19.1554,VALID,155,VALID,0.53125,
2012-04-27, 00:42:04,VALID,918.384,VALID,0,VALID,95.9559,VALID,0,VALID,19.1749,VALID,156,VALID,0.888281,
2012-04-27, 00:43:04,VALID,918.345,VALID,0,VALID,96.0627,VALID,0,VALID,19.1749,VALID,156,VALID,1.12188,
2012-04-27, 00:44:04,VALID,918.354,VALID,0,VALID,96.1618,VALID,0,VALID,19.1554,VALID,157,VALID,0.639063,
2012-04-27, 00:45:04,VALID,918.364,VALID,0,VALID,96.2685,VALID,0,VALID,19.1554,VALID,158,VALID,0.491016,
2012-04-27, 00:46:04,VALID,918.373,VALID,0,VALID,96.36,VALID,0,VALID,19.1554,VALID,149,VALID,0.771094,
2012-04-27, 00:47:04,VALID,918.372,VALID,0,VALID,96.4515,VALID,0,VALID,19.1359,VALID,168,VALID,0.672656,
2012-04-27, 00:48:04,VALID,918.442,VALID,0,VALID,96.5277,VALID,0,VALID,19.1164,VALID,152,VALID,0.613672,
2012-04-27, 00:49:04,VALID,918.423,VALID,0,VALID,96.5963,VALID,0,VALID,19.1164,VALID,139,VALID,0.633984,
2012-04-27, 00:50:04,VALID,918.432,VALID,0,VALID,96.642,VALID,0.107441,VALID,19.1164,VALID,135,VALID,1.26719,
2012-04-27, 00:51:04,VALID,918.462,VALID,0,VALID,96.6954,VALID,0,VALID,19.0969,VALID,165,VALID,2.02461,
2012-04-27, 00:52:04,VALID,918.455,VALID,0,VALID,96.7335,VALID,0,VALID,19.1373,VALID,154,VALID,1.1207,
2012-04-27, 00:53:04,VALID,918.474,VALID,0,VALID,96.7107,VALID,0,VALID,19.1373,VALID,136,VALID,1.17422,
2012-04-27, 00:54:04,VALID,918.456,VALID,0,VALID,96.6954,VALID,0,VALID,19.1359,VALID,130,VALID,1.10586,
2012-04-27, 00:55:04,VALID,918.428,VALID,0,VALID,96.6802,VALID,0,VALID,19.1359,VALID,130,VALID,0.951172,
2012-04-27, 00:56:04,VALID,918.426,VALID,0,VALID,96.6725,VALID,0,VALID,19.1359,VALID,130,VALID,0.585938,
2012-04-27, 00:57:04,VALID,918.353,VALID,0,VALID,96.6344,VALID,0,VALID,19.1359,VALID,130,VALID,0.692969,
2012-04-27, 00:58:04,VALID,918.362,VALID,0,VALID,96.6268,VALID,0,VALID,19.1554,VALID,130,VALID,0.583203,
2012-04-27, 00:59:04,VALID,918.323,VALID,0,VALID,96.6115,VALID,0,VALID,19.1359,VALID,130,VALID,0.842578,
2012-04-27, 01:00:04,VALID,918.298,VALID,0,VALID,96.5811,VALID,0,VALID,19.1359,VALID,130,VALID,0.691406,
2012-04-27, 01:01:04,VALID,918.29,VALID,0,VALID,96.5353,VALID,0,VALID,19.1164,VALID,130,VALID,0.479297,
2012-04-27, 01:02:04,VALID,918.298,VALID,0,VALID,96.4972,VALID,0,VALID,19.1164,VALID,130,VALID,0.678516,
2012-04-27, 01:03:04,VALID,918.296,VALID,0,VALID,96.4972,VALID,0,VALID,19.1164,VALID,130,VALID,0.502344,
2012-04-27, 01:04:04,VALID,918.294,VALID,0,VALID,96.4972,VALID,0,VALID,19.1164,VALID,130,VALID,0.367578,
2012-04-27, 01:05:04,VALID,918.272,VALID,0,VALID,96.4743,VALID,0,VALID,19.1164,VALID,130,VALID,0.594531,
2012-04-27, 01:06:04,VALID,918.253,VALID,0,VALID,96.3981,VALID,0,VALID,19.1359,VALID,129,VALID,0.396094,
2012-04-27, 01:07:04,VALID,918.263,VALID,0,VALID,96.4133,VALID,0,VALID,19.1749,VALID,130,VALID,0,
2012-04-27, 01:08:04,VALID,918.265,VALID,0,VALID,96.3295,VALID,0,VALID,19.1749,VALID,130,VALID,0,
2012-04-27, 01:09:04,VALID,918.219,VALID,0,VALID,96.2761,VALID,0,VALID,19.1958,VALID,130,VALID,0,
2012-04-27, 01:10:04,VALID,918.206,VALID,0,VALID,96.2533,VALID,0.107441,VALID,19.1734,VALID,130,VALID,0,
2012-04-27, 01:11:04,VALID,918.219,VALID,0,VALID,96.2609,VALID,0,VALID,19.2139,VALID,130,VALID,0,
2012-04-27, 01:12:04,VALID,918.211,VALID,0,VALID,96.1618,VALID,0.107441,VALID,19.1734,VALID,130,VALID,0.223828,
2012-04-27, 01:13:04,VALID,918.159,VALID,0,VALID,96.1084,VALID,0,VALID,19.1749,VALID,130,VALID,0.563281,
2012-04-27, 01:14:04,VALID,918.168,VALID,0,VALID,96.055,VALID,0,VALID,19.1749,VALID,130,VALID,0.627344,
2012-04-27, 01:15:04,VALID,918.168,VALID,0,VALID,95.9559,VALID,0,VALID,19.1554,VALID,130,VALID,0.665234,
2012-04-27, 01:16:04,VALID,918.172,VALID,0,VALID,95.8187,VALID,0,VALID,19.1749,VALID,130,VALID,0.710938,
2012-04-27, 01:17:04,VALID,918.151,VALID,0,VALID,95.4985,VALID,0,VALID,19.2139,VALID,130,VALID,0.600781,
2012-04-27, 01:18:04,VALID,918.188,VALID,0,VALID,95.1707,VALID,0,VALID,19.2904,VALID,130,VALID,0.221875,
2012-04-27, 01:19:04,VALID,918.133,VALID,0,VALID,94.9496,VALID,0,VALID,19.3503,VALID,162,VALID,1.28047,
2012-04-27, 01:20:04,VALID,918.162,VALID,0,VALID,94.66,VALID,0.107441,VALID,19.3489,VALID,162,VALID,1,
2012-04-27, 01:21:04,VALID,918.124,VALID,0,VALID,94.3779,VALID,0.107441,VALID,19.4268,VALID,146,VALID,1.32813,
2012-04-27, 01:22:04,VALID,918.119,VALID,0,VALID,94.1111,VALID,0,VALID,19.4658,VALID,136,VALID,1.23125,
2012-04-27, 01:23:04,VALID,918.097,VALID,0,VALID,93.8824,VALID,0,VALID,19.4673,VALID,128,VALID,0.935156,
2012-04-27, 01:24:04,VALID,918.09,VALID,0,VALID,93.6994,VALID,0,VALID,19.4673,VALID,128,VALID,0.644141,
2012-04-27, 01:25:04,VALID,918.058,VALID,0,VALID,93.5164,VALID,0,VALID,19.4868,VALID,128,VALID,0.642969,
2012-04-27, 01:26:04,VALID,918.055,VALID,0,VALID,93.5546,VALID,0,VALID,19.4074,VALID,128,VALID,0.951563,
2012-04-27, 01:27:04,VALID,918.051,VALID,0,VALID,93.6765,VALID,0.107441,VALID,19.4088,VALID,128,VALID,0.702734,
2012-04-27, 01:28:04,VALID,918.036,VALID,0,VALID,93.8061,VALID,0,VALID,19.3698,VALID,128,VALID,0.735547,
2012-04-27, 01:29:04,VALID,918.009,VALID,0,VALID,93.9738,VALID,0.107441,VALID,19.3099,VALID,129,VALID,0.599219,
2012-04-27, 01:30:04,VALID,917.989,VALID,0,VALID,94.1797,VALID,0,VALID,19.3113,VALID,128,VALID,0.480469,
2012-04-27, 01:31:04,VALID,917.984,VALID,0,VALID,94.2788,VALID,0.107441,VALID,19.2918,VALID,128,VALID,0.602734,
2012-04-27, 01:32:04,VALID,917.954,VALID,0,VALID,94.4922,VALID,0.107441,VALID,19.2918,VALID,128,VALID,0.378125,
2012-04-27, 01:33:04,VALID,917.916,VALID,0,VALID,94.6066,VALID,0,VALID,19.2528,VALID,128,VALID,0.292578,
2012-04-27, 01:34:04,VALID,917.91,VALID,0,VALID,94.6523,VALID,0.107441,VALID,19.2124,VALID,129,VALID,0.495703,
2012-04-27, 01:35:04,VALID,917.856,VALID,0,VALID,94.6676,VALID,0,VALID,19.2334,VALID,128,VALID,0.269141,
2012-04-27, 01:36:04,VALID,917.875,VALID,0,VALID,94.7819,VALID,0,VALID,19.1944,VALID,128,VALID,0,
2012-04-27, 01:37:04,VALID,917.868,VALID,0,VALID,94.8124,VALID,0,VALID,19.1944,VALID,129,VALID,0,
2012-04-27, 01:38:04,VALID,917.865,VALID,0,VALID,94.8658,VALID,0,VALID,19.1749,VALID,128,VALID,0,
2012-04-27, 01:39:04,VALID,917.828,VALID,0,VALID,94.9115,VALID,0,VALID,19.1554,VALID,128,VALID,0.244531,
2012-04-27, 01:40:04,VALID,917.825,VALID,0,VALID,94.8887,VALID,0,VALID,19.1164,VALID,128,VALID,0.205078,
2012-04-27, 01:41:04,VALID,917.818,VALID,0,VALID,94.9878,VALID,0,VALID,19.1164,VALID,129,VALID,0.315625,
2012-04-27, 01:42:04,VALID,917.788,VALID,0,VALID,95.0792,VALID,0,VALID,19.0969,VALID,129,VALID,0.355469,
2012-04-27, 01:43:04,VALID,917.796,VALID,0,VALID,95.125,VALID,0,VALID,19.0774,VALID,128,VALID,0.532422,
2012-04-27, 01:44:04,VALID,917.797,VALID,0,VALID,95.1783,VALID,0,VALID,19.0579,VALID,128,VALID,0.646484,
2012-04-27, 01:45:04,VALID,917.807,VALID,0,VALID,95.2622,VALID,0.107441,VALID,19.0175,VALID,128,VALID,0.560547,
2012-04-27, 01:46:04,VALID,917.792,VALID,0,VALID,95.2775,VALID,0,VALID,18.9785,VALID,129,VALID,0.847656,
2012-04-27, 01:47:04,VALID,917.776,VALID,0,VALID,95.3384,VALID,0.107441,VALID,18.9799,VALID,128,VALID,0.960156,
2012-04-27, 01:48:04,VALID,917.799,VALID,0,VALID,95.468,VALID,0,VALID,18.9799,VALID,129,VALID,0.978516,
2012-04-27, 01:49:04,VALID,917.796,VALID,0,VALID,95.651,VALID,0,VALID,18.9395,VALID,128,VALID,0.898438,
2012-04-27, 01:50:04,VALID,917.738,VALID,0,VALID,95.8568,VALID,0,VALID,18.9604,VALID,16,VALID,1.27383,
2012-04-27, 01:51:04,VALID,917.736,VALID,0,VALID,95.9559,VALID,0,VALID,18.9409,VALID,22,VALID,0.780078,
2012-04-27, 01:52:04,VALID,917.709,VALID,0,VALID,96.116,VALID,0,VALID,18.9214,VALID,22,VALID,0.719922,
2012-04-27, 01:53:04,VALID,917.7,VALID,0,VALID,96.2456,VALID,0,VALID,18.9005,VALID,22,VALID,0.560938,
2012-04-27, 01:54:04,VALID,917.661,VALID,0,VALID,96.3524,VALID,0,VALID,18.9019,VALID,22,VALID,0.655469,
2012-04-27, 01:55:04,VALID,917.646,VALID,0,VALID,96.4515,VALID,0,VALID,18.9019,VALID,22,VALID,0.508203,
2012-04-27, 01:56:04,VALID,917.626,VALID,0,VALID,96.5048,VALID,0,VALID,18.8824,VALID,22,VALID,0.675391,
2012-04-27, 01:57:04,VALID,917.592,VALID,0,VALID,96.5963,VALID,0,VALID,18.8629,VALID,22,VALID,0.466016,
2012-04-27, 01:58:04,VALID,917.566,VALID,0,VALID,96.6573,VALID,0,VALID,18.8434,VALID,22,VALID,0.514063,
2012-04-27, 01:59:04,VALID,917.558,VALID,0,VALID,96.703,VALID,0,VALID,18.803,VALID,22,VALID,0.560547,
2012-04-27, 02:00:04,VALID,917.544,VALID,0,VALID,96.7869,VALID,0,VALID,18.803,VALID,22,VALID,0.815625,
2012-04-27, 02:01:04,VALID,917.506,VALID,0,VALID,96.7869,VALID,0,VALID,18.8045,VALID,22,VALID,0.879297,
2012-04-27, 02:02:04,VALID,917.481,VALID,0,VALID,96.7793,VALID,0,VALID,18.8045,VALID,22,VALID,1.07266,
2012-04-27, 02:03:04,VALID,917.436,VALID,0,VALID,96.7716,VALID,0,VALID,18.785,VALID,22,VALID,0.735547,
2012-04-27, 02:04:04,VALID,917.453,VALID,0,VALID,96.703,VALID,0,VALID,18.785,VALID,22,VALID,0.657422,
2012-04-27, 02:05:04,VALID,917.392,VALID,0,VALID,96.7259,VALID,0,VALID,18.785,VALID,22,VALID,0.224609,
2012-04-27, 02:06:04,VALID,917.372,VALID,0,VALID,96.6802,VALID,0,VALID,18.785,VALID,22,VALID,0.0472656,
2012-04-27, 02:07:04,VALID,917.369,VALID,0,VALID,96.5734,VALID,0,VALID,18.785,VALID,22,VALID,0.221875,
2012-04-27, 02:08:04,VALID,917.349,VALID,0,VALID,96.5124,VALID,0,VALID,18.785,VALID,22,VALID,0,
2012-04-27, 02:09:04,VALID,917.354,VALID,0,VALID,96.5124,VALID,0,VALID,18.8045,VALID,22,VALID,0,
2012-04-27, 02:10:04,VALID,917.308,VALID,0,VALID,96.5201,VALID,0.107441,VALID,18.824,VALID,22,VALID,0,
2012-04-27, 02:11:04,VALID,917.325,VALID,0,VALID,96.5048,VALID,0,VALID,18.8434,VALID,22,VALID,0.0253906,
2012-04-27, 02:12:04,VALID,917.32,VALID,0,VALID,96.4133,VALID,0.107441,VALID,18.8434,VALID,22,VALID,0.536328,
2012-04-27, 02:13:04,VALID,917.296,VALID,0,VALID,96.421,VALID,0,VALID,18.8045,VALID,22,VALID,0.707031,
2012-04-27, 02:14:04,VALID,917.277,VALID,0,VALID,96.5048,VALID,0.107441,VALID,18.7835,VALID,22,VALID,1.06719,
2012-04-27, 02:15:04,VALID,917.257,VALID,0,VALID,96.5201,VALID,0.107441,VALID,18.7835,VALID,22,VALID,0.875391,
2012-04-27, 02:16:04,VALID,917.273,VALID,0,VALID,96.4819,VALID,0,VALID,18.764,VALID,22,VALID,0.709375,
2012-04-27, 02:17:04,VALID,917.27,VALID,0,VALID,96.5124,VALID,0.107441,VALID,18.7446,VALID,22,VALID,0.698828,
2012-04-27, 02:18:04,VALID,917.23,VALID,0,VALID,96.5506,VALID,0.107441,VALID,18.7446,VALID,22,VALID,0.588672,
2012-04-27, 02:19:04,VALID,917.223,VALID,0,VALID,96.6192,VALID,0.107441,VALID,18.7446,VALID,22,VALID,0.648438,
2012-04-27, 02:20:04,VALID,917.199,VALID,0,VALID,96.6115,VALID,0,VALID,18.7446,VALID,22,VALID,0.823047,
2012-04-27, 02:21:04,VALID,917.208,VALID,0,VALID,96.5887,VALID,0.107441,VALID,18.7655,VALID,22,VALID,0.691406,
2012-04-27, 02:22:04,VALID,917.223,VALID,0,VALID,96.6115,VALID,0,VALID,18.746,VALID,22,VALID,0.873828,
2012-04-27, 02:23:04,VALID,917.174,VALID,0,VALID,96.5734,VALID,0.107441,VALID,18.746,VALID,22,VALID,0.767187,
2012-04-27, 02:24:04,VALID,917.175,VALID,0,VALID,96.5353,VALID,0,VALID,18.7265,VALID,109,VALID,0.908984,
2012-04-27, 02:25:04,VALID,917.179,VALID,0,VALID,96.5582,VALID,0.107441,VALID,18.6875,VALID,122,VALID,0.882422,
2012-04-27, 02:26:04,VALID,917.197,VALID,0,VALID,96.5811,VALID,0.107441,VALID,18.6666,VALID,122,VALID,0.834766,
2012-04-27, 02:27:04,VALID,917.189,VALID,0,VALID,96.5963,VALID,0.107441,VALID,18.668,VALID,122,VALID,0.323047,
2012-04-27, 02:28:04,VALID,917.201,VALID,0,VALID,96.6192,VALID,0,VALID,18.668,VALID,122,VALID,0.318359,
2012-04-27, 02:29:04,VALID,917.187,VALID,0,VALID,96.6573,VALID,0.107441,VALID,18.668,VALID,122,VALID,0,
2012-04-27, 02:30:04,VALID,917.176,VALID,0,VALID,96.6115,VALID,0,VALID,18.629,VALID,122,VALID,0.704687,
2012-04-27, 02:31:04,VALID,917.191,VALID,0,VALID,96.5963,VALID,0,VALID,18.629,VALID,122,VALID,0.708203,
2012-04-27, 02:32:04,VALID,917.184,VALID,0,VALID,96.5582,VALID,0,VALID,18.5886,VALID,122,VALID,0.509375,
2012-04-27, 02:33:04,VALID,917.19,VALID,0,VALID,96.6039,VALID,0,VALID,18.6095,VALID,122,VALID,0.536719,
2012-04-27, 02:34:04,VALID,917.165,VALID,0,VALID,96.6268,VALID,0,VALID,18.6081,VALID,122,VALID,0.694531,
2012-04-27, 02:35:04,VALID,917.175,VALID,0,VALID,96.6497,VALID,0,VALID,18.6095,VALID,122,VALID,0.665234,
2012-04-27, 02:36:04,VALID,917.2,VALID,0,VALID,96.6802,VALID,0,VALID,18.59,VALID,122,VALID,0.167578,
2012-04-27, 02:37:04,VALID,917.206,VALID,0,VALID,96.6954,VALID,0.107441,VALID,18.5705,VALID,122,VALID,0.570313,
2012-04-27, 02:38:04,VALID,917.168,VALID,0,VALID,96.7564,VALID,0.107441,VALID,18.5705,VALID,122,VALID,0.752344,
2012-04-27, 02:39:04,VALID,917.132,VALID,0,VALID,96.7869,VALID,0.107441,VALID,18.5705,VALID,122,VALID,0.793359,
2012-04-27, 02:40:04,VALID,917.157,VALID,0,VALID,96.8403,VALID,0,VALID,18.5511,VALID,122,VALID,0.809375,
2012-04-27, 02:41:04,VALID,917.147,VALID,0,VALID,96.8555,VALID,0,VALID,18.5107,VALID,122,VALID,0.589844,
2012-04-27, 02:42:04,VALID,917.156,VALID,0,VALID,96.9012,VALID,0.107441,VALID,18.5121,VALID,122,VALID,0.288281,
2012-04-27, 02:43:04,VALID,917.139,VALID,0,VALID,96.9317,VALID,0.107441,VALID,18.5316,VALID,122,VALID,0.075,
2012-04-27, 02:44:04,VALID,917.128,VALID,0,VALID,96.9851,VALID,0,VALID,18.5316,VALID,122,VALID,0.383203,
2012-04-27, 02:45:04,VALID,917.133,VALID,0,VALID,97.008,VALID,0,VALID,18.5316,VALID,122,VALID,0.0972656,
2012-04-27, 02:46:04,VALID,917.122,VALID,0,VALID,97.0232,VALID,0.107441,VALID,18.5107,VALID,122,VALID,0.492578,
2012-04-27, 02:47:04,VALID,917.145,VALID,0,VALID,97.0766,VALID,0,VALID,18.5121,VALID,122,VALID,0.535156,
2012-04-27, 02:48:04,VALID,917.109,VALID,0,VALID,97.0918,VALID,0.107441,VALID,18.5121,VALID,122,VALID,0.526953,
2012-04-27, 02:49:04,VALID,917.097,VALID,0,VALID,97.1223,VALID,0.107441,VALID,18.5121,VALID,110,VALID,0.841016,
2012-04-27, 02:50:04,VALID,917.103,VALID,0,VALID,97.1223,VALID,0.107441,VALID,18.5121,VALID,110,VALID,0.725391,
2012-04-27, 02:51:04,VALID,917.124,VALID,0,VALID,97.0994,VALID,0.107441,VALID,18.4731,VALID,110,VALID,0.896875,
2012-04-27, 02:52:04,VALID,917.115,VALID,0,VALID,97.1376,VALID,0,VALID,18.4536,VALID,110,VALID,0.877734,
2012-04-27, 02:53:04,VALID,917.131,VALID,0,VALID,97.1528,VALID,0.107441,VALID,18.4731,VALID,110,VALID,0.522656,
2012-04-27, 02:54:04,VALID,917.148,VALID,0,VALID,97.1452,VALID,0,VALID,18.4536,VALID,110,VALID,0.436328,
2012-04-27, 02:55:04,VALID,917.121,VALID,0,VALID,97.1833,VALID,0,VALID,18.4731,VALID,110,VALID,0.830469,
2012-04-27, 02:56:04,VALID,917.14,VALID,0,VALID,97.1986,VALID,0,VALID,18.4731,VALID,110,VALID,0.691797,
2012-04-27, 02:57:04,VALID,917.117,VALID,0,VALID,97.2062,VALID,0,VALID,18.4731,VALID,110,VALID,0.777734,
2012-04-27, 02:58:04,VALID,917.08,VALID,0,VALID,97.2519,VALID,0,VALID,18.4926,VALID,110,VALID,0.980078,
2012-04-27, 02:59:04,VALID,917.109,VALID,0,VALID,97.2519,VALID,0,VALID,18.5121,VALID,130,VALID,1.32852,
2012-04-27, 03:00:04,VALID,917.07,VALID,0,VALID,97.2443,VALID,0,VALID,18.5511,VALID,131,VALID,1.30625,
2012-04-27, 03:01:04,VALID,917.057,VALID,0,VALID,97.2214,VALID,0,VALID,18.5705,VALID,131,VALID,1.29141,
2012-04-27, 03:02:04,VALID,917.042,VALID,0,VALID,97.2062,VALID,0,VALID,18.5705,VALID,131,VALID,1.34648,
2012-04-27, 03:03:04,VALID,917.054,VALID,0,VALID,97.2138,VALID,0,VALID,18.59,VALID,131,VALID,1.07734,
2012-04-27, 03:04:04,VALID,917.025,VALID,0,VALID,97.1833,VALID,0,VALID,18.6095,VALID,131,VALID,0.880859,
2012-04-27, 03:05:04,VALID,917.021,VALID,0,VALID,97.1681,VALID,0,VALID,18.6304,VALID,131,VALID,1.16836,
2012-04-27, 03:06:04,VALID,917.047,VALID,0,VALID,97.1528,VALID,0.107441,VALID,18.629,VALID,131,VALID,1.2875,
2012-04-27, 03:07:04,VALID,917.049,VALID,0,VALID,97.1528,VALID,0,VALID,18.6485,VALID,131,VALID,1.32383,
2012-04-27, 03:08:04,VALID,917.037,VALID,0,VALID,97.1452,VALID,0,VALID,18.6889,VALID,140,VALID,1.35469,
2012-04-27, 03:09:04,VALID,917.02,VALID,0,VALID,97.1452,VALID,0,VALID,18.668,VALID,134,VALID,1.41641,
2012-04-27, 03:10:04,VALID,917.008,VALID,0,VALID,97.1604,VALID,0,VALID,18.668,VALID,133,VALID,1.36875,
2012-04-27, 03:11:04,VALID,917.039,VALID,0,VALID,97.1604,VALID,0,VALID,18.6889,VALID,133,VALID,1.59609,
2012-04-27, 03:12:04,VALID,917.014,VALID,0,VALID,97.1681,VALID,0,VALID,18.668,VALID,136,VALID,1.51055,
2012-04-27, 03:13:04,VALID,916.998,VALID,0,VALID,97.1604,VALID,0,VALID,18.668,VALID,126,VALID,1.35938,
2012-04-27, 03:14:04,VALID,916.978,VALID,0,VALID,97.1528,VALID,0,VALID,18.6889,VALID,149,VALID,1.73945,
2012-04-27, 03:15:04,VALID,916.99,VALID,0,VALID,97.1833,VALID,0,VALID,18.6471,VALID,144,VALID,1.25508,
2012-04-27, 03:16:04,VALID,916.977,VALID,0,VALID,97.1833,VALID,0,VALID,18.6889,VALID,137,VALID,1.09414,
2012-04-27, 03:17:04,VALID,916.966,VALID,0,VALID,97.1528,VALID,0,VALID,18.6889,VALID,137,VALID,1.05469,
2012-04-27, 03:18:04,VALID,916.924,VALID,0,VALID,97.1376,VALID,0,VALID,18.668,VALID,137,VALID,1.06562,
2012-04-27, 03:19:04,VALID,916.919,VALID,0,VALID,97.1376,VALID,0,VALID,18.668,VALID,153,VALID,1.11055,
2012-04-27, 03:20:04,VALID,916.906,VALID,0,VALID,97.1147,VALID,0,VALID,18.707,VALID,147,VALID,0.760938,
2012-04-27, 03:21:04,VALID,916.871,VALID,0,VALID,97.0918,VALID,0,VALID,18.707,VALID,149,VALID,1.15508,
2012-04-27, 03:22:04,VALID,916.863,VALID,0,VALID,97.008,VALID,0,VALID,18.668,VALID,149,VALID,1.38398,
2012-04-27, 03:23:04,VALID,916.863,VALID,0,VALID,96.9394,VALID,0,VALID,18.6875,VALID,149,VALID,1.33555,
2012-04-27, 03:24:04,VALID,916.876,VALID,0,VALID,96.9012,VALID,0,VALID,18.746,VALID,149,VALID,1.10078,
2012-04-27, 03:25:04,VALID,916.862,VALID,0,VALID,96.8479,VALID,0,VALID,18.7655,VALID,149,VALID,0.812109,
2012-04-27, 03:26:04,VALID,916.857,VALID,0,VALID,96.7335,VALID,0,VALID,18.746,VALID,139,VALID,1.21172,
2012-04-27, 03:27:04,VALID,916.853,VALID,0,VALID,96.6878,VALID,0,VALID,18.7655,VALID,139,VALID,1.00078,
2012-04-27, 03:28:04,VALID,916.898,VALID,0,VALID,96.6039,VALID,0,VALID,18.7655,VALID,139,VALID,1.21797,
2012-04-27, 03:29:04,VALID,916.867,VALID,0,VALID,96.5353,VALID,0,VALID,18.7655,VALID,139,VALID,0.866406,
2012-04-27, 03:30:04,VALID,916.865,VALID,0,VALID,96.4133,VALID,0,VALID,18.7655,VALID,139,VALID,0.884766,
2012-04-27, 03:31:04,VALID,916.872,VALID,0,VALID,96.3295,VALID,0,VALID,18.7655,VALID,139,VALID,0.793359,
2012-04-27, 03:32:04,VALID,916.876,VALID,0,VALID,96.2151,VALID,0,VALID,18.746,VALID,139,VALID,0.835156,
2012-04-27, 03:33:04,VALID,916.826,VALID,0,VALID,96.1694,VALID,0,VALID,18.707,VALID,139,VALID,0.696484,
2012-04-27, 03:34:04,VALID,916.806,VALID,0,VALID,96.116,VALID,0,VALID,18.707,VALID,139,VALID,0.326172,
2012-04-27, 03:35:04,VALID,916.829,VALID,0,VALID,96.0779,VALID,0,VALID,18.668,VALID,139,VALID,0.133203,
2012-04-27, 03:36:04,VALID,916.795,VALID,0,VALID,96.0245,VALID,0,VALID,18.668,VALID,139,VALID,0,
2012-04-27, 03:37:04,VALID,916.795,VALID,0,VALID,96.0017,VALID,0,VALID,18.6485,VALID,139,VALID,0,
2012-04-27, 03:38:04,VALID,916.759,VALID,0,VALID,95.9941,VALID,0,VALID,18.6485,VALID,139,VALID,0,
2012-04-27, 03:39:04,VALID,916.778,VALID,0,VALID,95.9712,VALID,0,VALID,18.629,VALID,139,VALID,0,
2012-04-27, 03:40:04,VALID,916.752,VALID,0,VALID,95.9483,VALID,0,VALID,18.629,VALID,139,VALID,0,
2012-04-27, 03:41:04,VALID,916.742,VALID,0,VALID,95.9407,VALID,0,VALID,18.629,VALID,139,VALID,0,
2012-04-27, 03:42:04,VALID,916.724,VALID,0,VALID,95.8873,VALID,0.107441,VALID,18.6485,VALID,139,VALID,0,
2012-04-27, 03:43:04,VALID,916.732,VALID,0,VALID,95.8568,VALID,0,VALID,18.629,VALID,139,VALID,0,
2012-04-27, 03:44:04,VALID,916.73,VALID,0,VALID,95.8645,VALID,0,VALID,18.668,VALID,139,VALID,0,